Location: Newark
(45.7812°N, 4.7054°E)
Time: 23:12:34
(UTC+00:00)

ISS - Visible Passes

Search period start: 18 January 2020 00:00
Search period end: 28 January 2020 00:00
Orbit: 415 x 421 km, 51.6° (Epoch: 19 January)

Date Brightness Start Highest point End Pass type
(mag) Time Alt. Az. Time Alt. Az. Time Alt. Az.
19 Jan -1.4 18:11:38 10° SSE 18:12:27 13° SSE 18:12:27 13° SSE visible
20 Jan -1.3 18:58:36 10° SW 18:59:44 19° SW 18:59:44 19° SW visible
21 Jan -2.9 18:10:52 10° SSW 18:13:58 35° SE 18:14:00 35° SE visible
22 Jan -2.1 17:23:24 10° S 17:26:04 22° SE 17:28:10 13° E visible
22 Jan -1.8 18:59:14 10° WSW 19:01:07 30° W 19:01:07 30° W visible
23 Jan -3.9 18:11:10 10° WSW 18:14:32 84° SSE 18:15:12 54° ENE visible
24 Jan -3.4 17:23:13 10° SW 17:26:31 54° SE 17:29:14 14° ENE visible
24 Jan -1.8 19:00:12 10° W 19:02:10 27° WNW 19:02:10 27° WNW visible
25 Jan -3.2 18:11:57 10° W 18:15:14 49° NNW 18:16:08 37° NNE visible
26 Jan -3.6 17:23:45 10° WSW 17:27:06 68° NNW 17:30:04 13° ENE visible
26 Jan -1.6 19:01:15 10° WNW 19:03:00 23° NW 19:03:00 23° NW visible
27 Jan -2.6 18:12:56 10° WNW 18:16:02 33° N 18:16:54 28° NNE visible
